Tulsa, OK

2:10 AM CST on February 12, 2016 (GMT -0600)
Tulsa International

Weather History for KTUL - February, 2015

Change the Weather History Date:

Saturday, February 7, 2015

  Actual Average Record
Temperature  
Mean Temperature 56 °F 40 °F  
Max Temperature 69 °F 51 °F 78 °F (1909)
Min Temperature 42 °F 29 °F 0 °F (1933)
Degree Days  
Heating Degree Days 9 25  
Month to date heating degree days 190 178  
Since 1 July heating degree days 2400 2451  
Growing Degree Days 6 (Base 50)    
Moisture  
Dew Point 42 °F    
Average Humidity 64    
Maximum Humidity 89    
Minimum Humidity 39    
Precipitation  
Precipitation 0.00 in 0.06 in 0.76 in (1980)
Month to date precipitation 0.11 0.38  
Year to date precipitation 0.86 2.04  
Sea Level Pressure  
Sea Level Pressure 29.84 in    
Wind  
Wind Speed 12 mph (South)    
Max Wind Speed 22 mph    
Max Gust Speed 26 mph    
Visibility 10 miles    
Events      
T = Trace of Precipitation, MM = Missing Value Source: NWS Daily Summary

Daily Weather History Graph

Daily Weather History Graph

Search for Another Location

Airport or City:

Trip Planner

Search our weather history database for the weather conditions in past years. The results will help you decide how hot, cold, wet, or windy it might be!

Date:

Astronomy

Feb. 07, 2015 Rise Set
Actual Time 7:19 AM CST 5:56 PM CST
Civil Twilight 6:52 AM CST 6:23 PM CST
Nautical Twilight 6:22 AM CST 6:53 PM CST
Astronomical Twilight 5:52 AM CST 7:23 PM CST
Moon 9:33 PM CST (2/7) 9:03 AM CST (2/7)
Length of Visible Light 11h 30m
Length of Day
10h 36m
Waning Gibbous, 88% of the Moon is Illuminated
Feb 7
Waning Gibbous
Feb 11
Last Quarter
Feb 18
New
Feb 25
First Quarter
Mar 5
Full

Hourly Weather History & Observations

Time (CST) Temp. Windchill Dew Point Humidity Pressure Visibility Wind Dir Wind Speed Gust Speed Precip Events Conditions
12:53 AM 45.0 °F 37.9 °F 37.9 °F 76% 30.01 in 10.0 mi South 16.1 mph - N/A   Clear
1:53 AM 44.1 °F 37.4 °F 37.9 °F 79% 29.99 in 10.0 mi South 13.8 mph - N/A   Clear
2:53 AM 43.0 °F 37.7 °F 37.9 °F 82% 29.97 in 10.0 mi SSE 9.2 mph - N/A   Clear
3:53 AM 42.1 °F 35.7 °F 37.9 °F 85% 29.93 in 10.0 mi SSE 11.5 mph - N/A   Clear
4:53 AM 42.1 °F 34.9 °F 37.9 °F 85% 29.92 in 10.0 mi South 13.8 mph - N/A   Clear
5:53 AM 42.1 °F 35.2 °F 37.9 °F 85% 29.90 in 10.0 mi South 12.7 mph - N/A   Clear
6:53 AM 42.1 °F 36.1 °F 39.0 °F 89% 29.89 in 10.0 mi South 10.4 mph - N/A   Clear
7:53 AM 43.0 °F 36.4 °F 39.9 °F 89% 29.88 in 9.0 mi South 12.7 mph - N/A   Clear
8:53 AM 46.0 °F 40.6 °F 41.0 °F 83% 29.87 in 10.0 mi South 11.5 mph - N/A   Partly Cloudy
9:53 AM 50.0 °F - 42.1 °F 74% 29.88 in 10.0 mi South 11.5 mph - N/A   Partly Cloudy
10:53 AM 55.0 °F - 43.0 °F 64% 29.88 in 10.0 mi South 11.5 mph - N/A   Clear
11:53 AM 61.0 °F - 44.1 °F 54% 29.84 in 10.0 mi South 13.8 mph - N/A   Clear
12:53 PM 64.0 °F - 44.1 °F 48% 29.80 in 10.0 mi South 12.7 mph - N/A   Clear
1:53 PM 66.0 °F - 44.1 °F 45% 29.75 in 10.0 mi South 20.7 mph 25.3 mph N/A   Clear
2:53 PM 68.0 °F - 44.1 °F 42% 29.73 in 10.0 mi South 15.0 mph 26.5 mph N/A   Clear
3:53 PM 68.0 °F - 43.0 °F 40% 29.72 in 10.0 mi South 16.1 mph 24.2 mph N/A   Clear
4:53 PM 66.9 °F - 44.1 °F 44% 29.73 in 10.0 mi South 16.1 mph - N/A   Clear
5:53 PM 64.9 °F - 44.1 °F 47% 29.75 in 10.0 mi South 10.4 mph - N/A   Clear
6:53 PM 62.1 °F - 44.1 °F 52% 29.77 in 10.0 mi South 11.5 mph - N/A   Clear
7:53 PM 61.0 °F - 45.0 °F 56% 29.79 in 10.0 mi South 13.8 mph - N/A   Clear
8:53 PM 59.0 °F - 45.0 °F 60% 29.81 in 10.0 mi South 10.4 mph - N/A   Clear
9:53 PM 53.1 °F - 44.1 °F 71% 29.80 in 10.0 mi SE 6.9 mph - N/A   Clear
10:53 PM 53.1 °F - 44.1 °F 71% 29.79 in 10.0 mi SSE 6.9 mph - N/A   Clear
11:53 PM 52.0 °F - 45.0 °F 77% 29.78 in 10.0 mi SSE 8.1 mph - N/A   Clear